Location: Mouss�
(47.9236°N, 1.2701°W)
Time: 10:28:05
(UTC+00:00)

FALCON 9 DEB - Pass Details

Date: 03 March 2021
Orbit: 424 x 435 km, 53.0° (Epoch: 10 April)

Event Time Altitude Azimuth Distance (km) Brightness Sun altitude
Rises 19:56:04 0° 294° (WNW) 2,401 8.4 -21.3°
Reaches altitude 10° 19:58:15 10° 287° (WNW) 1,529 7.1 -21.7°
Enters shadow 20:01:24 39° 221° (SW) 658 4.1 -22.2°
